Theta_e
299 299 299 300 301 302 304 305 305 305 305 305 304 304 304 304 303 301 300 300 299 298 297 297 296 296 295 295 293 292 291 290 290 290 290 289 289 288 288 287 287 287 289 289 289 288 288 288 288 288 288 289 288 287 286 286 287 286 285 285 284 284
299 299 298 298 299 301 303 304 304 304 304 304 303 304 304 304 303 301 299 298 297 298 297 296 296 296 295 293 291 290 290 290 289 290 289 289 288 288 288 287 287 287 288 288 288 288 287 287 287 287 287 287 287 286 285 285 285 284 284 283 283 283
298 298 298 298 299 300 301 303 303 303 303 303 303 302 302 302 302 301 299 298 297 297 295 295 295 295 294 291 291 290 290 290 289 290 290 288 287 287 287 287 287 288 288 287 287 287 286 286 286 286 286 286 286 285 284 284 284 284 283 283 282 282
297 296 296 297 297 298 299 301 302 302 302 302 302 302 302 302 302 299 298 296 296 296 295 295 295 294 292 290 289 289 289 288 288 288 287 286 287 286 286 287 287 287 287 287 286 286 286 286 285 285 285 285 284 283 284 283 283 283 283 283 282 282
298 296 296 296 296 297 298 299 300 301 302 302 302 301 301 302 301 299 297 296 295 294 295 294 293 291 290 289 289 288 287 287 286 286 286 285 286 286 286 286 286 287 287 286 286 286 285 285 284 285 285 284 284 283 282 283 283 283 283 282 282 282
296 295 295 296 296 296 297 298 299 300 301 301 301 300 301 301 301 299 297 296 294 294 293 293 292 291 289 288 288 288 287 287 287 287 286 286 285 284 285 285 286 286 286 285 285 285 284 284 284 284 284 284 283 282 282 282 283 283 283 283 282 281
294 295 296 296 296 296 297 297 298 299 299 300 300 300 300 300 300 299 297 296 294 292 292 292 291 290 288 287 286 286 286 286 286 286 284 284 283 284 284 284 284 284 285 285 284 284 284 284 283 283 282 283 283 283 282 282 282 283 283 283 281 280
296 295 295 296 296 296 296 297 297 297 298 299 299 299 299 299 299 297 296 294 293 292 291 291 290 289 288 287 287 286 285 285 285 285 284 283 283 283 283 283 283 284 284 285 284 284 284 283 283 282 283 283 283 283 282 282 282 282 282 281 280 279
295 296 295 296 295 296 296 296 296 296 297 297 298 298 298 298 297 296 295 293 293 292 290 289 289 289 288 288 287 285 285 285 285 284 284 283 283 283 282 282 282 283 284 284 284 283 283 283 283 283 283 283 282 282 282 282 282 281 280 279 278 278
297 296 295 295 295 295 295 296 296 296 296 296 297 297 298 297 295 294 294 293 292 293 290 289 288 288 288 288 287 284 284 284 284 284 284 283 283 283 282 282 282 283 283 283 282 282 283 283 283 283 282 282 282 282 281 281 281 280 279 278 278 278
298 297 296 295 294 294 294 294 295 295 296 296 296 296 296 296 294 294 293 292 292 292 291 290 288 287 287 286 285 284 284 284 283 283 283 283 283 282 282 282 282 282 282 282 282 281 281 281 282 282 281 281 282 282 281 281 281 280 278 277 277 277
299 297 296 295 294 294 293 294 294 294 294 295 295 295 295 295 293 293 292 292 292 292 291 290 289 287 286 285 284 285 284 284 283 283 283 283 283 282 282 282 282 282 282 281 281 281 280 280 281 282 283 283 282 282 282 282 281 280 278 277 277 277
298 297 296 296 295 295 293 294 294 294 294 295 295 294 294 294 293 293 292 291 291 291 291 290 289 287 285 285 285 284 283 283 283 283 282 283 283 282 282 282 282 282 282 281 280 280 280 280 280 283 284 284 284 282 282 281 280 279 278 278 277 277
300 298 298 298 297 296 294 294 294 293 293 294 294 294 293 293 292 292 292 291 291 291 290 289 288 286 285 285 284 284 284 283 283 283 282 282 282 282 282 281 281 281 282 281 281 280 280 279 282 284 285 285 284 283 281 281 280 279 278 278 278 278
302 301 301 300 300 297 295 295 293 293 294 293 294 293 292 292 292 292 291 291 290 290 289 288 287 286 285 285 285 284 283 283 282 282 282 282 282 282 281 281 281 281 281 280 280 279 279 279 282 284 285 285 284 283 281 281 281 280 279 279 278 278
303 302 301 301 300 297 296 294 294 294 294 294 293 292 291 291 291 291 290 290 289 289 288 287 286 286 285 285 285 284 284 283 283 283 283 282 282 282 281 281 281 281 281 280 280 280 279 278 282 284 285 285 285 284 282 281 280 280 280 279 279 279
302 301 299 297 296 296 294 293 293 293 293 292 291 291 290 290 290 290 290 289 289 288 287 287 287 286 285 285 285 284 283 283 283 283 283 282 282 281 281 281 281 281 281 280 280 279 279 279 283 285 286 285 285 285 283 280 280 280 279 279 279 279
301 299 298 297 295 293 293 293 292 292 291 291 290 290 290 289 289 289 289 288 288 287 287 286 286 286 285 285 284 284 283 283 283 282 283 282 282 282 282 281 281 281 281 280 279 279 278 278 283 285 286 286 286 286 282 280 279 279 279 279 280 280
298 297 295 292 293 292 292 292 291 291 289 289 289 289 288 288 288 288 287 287 287 287 287 287 286 286 285 285 284 283 283 283 282 282 282 281 282 281 280 280 281 280 280 279 279 278 278 278 282 285 285 286 286 286 283 281 280 280 280 280 280 280
291 290 292 291 290 290 290 290 290 289 288 288 288 288 287 287 287 288 288 287 287 287 287 286 286 285 285 284 283 284 283 283 283 282 282 281 280 280 280 280 280 279 279 279 279 278 278 278 281 284 285 286 286 286 284 283 282 282 282 282 281 281
290 289 289 289 288 288 289 289 288 288 287 287 287 287 287 287 288 287 287 287 287 286 286 286 286 285 284 284 284 284 284 283 282 282 282 282 281 280 280 280 279 279 279 279 278 280 278 278 280 284 285 285 286 286 285 285 284 284 284 284 284 284
287 287 288 288 288 287 288 288 288 286 286 286 287 286 286 287 287 288 288 287 287 286 286 286 285 285 284 284 284 284 284 283 282 281 281 281 281 280 280 279 279 278 278 278 278 279 279 278 278 282 285 285 286 286 285 285 284 284 284 285 285 285
289 288 287 287 287 287 287 287 287 286 286 286 286 285 287 287 288 287 287 286 286 285 285 285 285 284 284 284 284 284 283 283 282 281 281 280 280 280 279 279 279 278 278 278 279 279 279 279 278 280 284 285 286 286 285 284 284 284 285 285 285 285
286 285 285 285 286 286 287 286 285 285 285 285 285 286 287 286 287 286 286 285 285 285 284 284 285 284 284 284 284 283 283 283 282 282 282 281 280 279 279 279 279 279 278 278 278 278 278 280 280 279 283 284 285 285 286 285 284 285 285 284 284 284
284 284 284 285 285 286 286 285 284 284 284 285 285 286 286 286 286 285 285 284 284 283 283 283 283 283 283 283 283 283 282 282 282 282 282 281 280 279 279 278 278 278 278 278 278 278 278 279 280 280 280 283 284 285 286 286 285 286 285 283 282 282
284 283 284 284 285 285 285 284 283 283 284 284 285 285 285 285 285 284 283 283 283 282 283 283 283 283 283 283 283 282 282 282 281 281 281 281 280 280 279 278 278 278 278 277 278 278 278 279 279 280 281 281 283 284 285 285 286 286 284 284 283 283
283 283 283 284 284 284 284 284 283 282 282 283 284 284 284 283 283 283 282 282 282 282 283 283 283 283 283 283 283 282 281 281 281 280 281 280 280 280 279 278 278 278 278 278 278 279 279 279 279 278 279 281 281 282 283 284 284 284 285 283 283 283
283 282 281 282 282 283 283 284 284 283 283 283 284 284 283 283 282 282 282 282 282 282 282 282 282 282 283 283 283 283 282 281 281 281 280 280 280 280 280 279 279 279 279 279 280 280 279 279 278 278 277 278 280 280 281 282 282 282 282 282 282 282
281 281 281 279 279 280 281 281 282 283 283 283 283 283 283 282 282 281 281 281 281 281 282 282 282 282 282 282 283 283 283 282 282 281 280 281 281 280 281 280 279 279 279 279 280 279 279 278 278 278 277 277 277 278 278 279 279 280 280 280 280 280
281 280 279 278 277 277 278 278 279 280 281 282 283 282 282 282 281 281 281 281 281 282 282 282 277 280 282 282 282 282 282 282 282 281 281 281 281 280 280 280 279 279 279 279 279 278 278 277 277 277 277 277 276 276 277 276 276 276 276 277 277 277
280 279 277 275 275 275 275 275 274 276 280 280 281 282 282 281 279 280 280 281 281 281 281 281 281 282 281 281 281 281 281 281 281 281 280 279 281 282 281 280 280 279 280 280 279 278 277 277 277 277 278 277 277 276 276 275 275 276 276 276 277 276
277 276 275 274 274 274 273 273 272 272 275 278 280 281 280 279 279 279 279 280 280 279 280 280 280 280 280 279 278 277 276 276 280 280 280 278 278 279 280 280 279 279 279 278 278 278 278 278 278 278 278 278 278 278 278 278 277 277 277 278 279 279
275 274 273 272 272 272 271 271 271 272 273 276 279 279 279 279 279 278 278 278 279 278 279 278 278 278 278 278 278 278 277 278 279 280 279 279 279 279 280 280 279 279 278 278 277 277 278 278 278 279 279 279 279 280 280 280 281 281 281 281 279 277
274 273 272 272 271 270 270 269 268 269 270 272 277 278 279 279 279 278 278 278 277 276 277 277 276 276 277 277 278 278 278 278 276 276 279 280 280 280 280 280 280 280 279 279 278 278 278 279 279 279 280 280 280 280 280 281 281 281 281 281 282 279
274 273 272 271 270 270 269 268 267 266 267 269 273 277 278 278 278 277 276 275 275 275 275 275 275 276 276 275 276 276 277 277 276 275 275 277 279 279 279 279 279 279 279 279 279 279 278 278 278 278 278 278 278 278 278 279 279 279 280 280 278 277
272 270 270 270 269 268 267 266 265 265 265 266 271 275 276 275 275 275 275 275 274 275 275 275 275 276 276 276 276 276 277 277 277 275 274 273 272 273 274 276 276 277 277 277 277 277 277 277 276 276 276 276 276 276 276 277 277 278 278 276 274 274
270 269 269 268 267 267 266 265 263 262 263 266 271 272 272 272 272 272 269 268 271 275 275 275 275 274 274 274 274 274 273 273 273 273 273 273 273 272 271 269 270 273 274 274 274 275 276 275 275 275 275 275 274 274 275 275 274 274 274 275 273 272
268 267 267 267 266 266 264 263 262 262 262 266 270 271 270 270 271 271 271 271 271 272 272 272 272 272 272 272 271 271 270 270 271 272 271 271 271 269 267 267 267 266 270 272 273 274 274 274 274 273 273 272 272 272 272 271 271 271 271 271 271 270
Wind_Speed
7 8 8 8 9 9 9 10 10 10 11 12 14 16 17 17 14 12 10 11 8 8 9 10 9 8 8 7 6 6 7 7 6 7 5 5 6 6 6 7 6 7 8 8 8 7 7 7 7 7 7 6 7 7 6 5 6 6 6 5 5 4
7 7 8 8 9 9 8 10 9 12 12 12 13 13 13 15 16 13 12 11 9 9 8 9 9 10 9 8 8 7 7 8 7 7 8 8 7 7 7 7 8 9 10 8 8 8 8 8 7 7 7 7 6 6 6 5 6 7 6 6 4 4
5 6 6 6 6 6 7 8 10 11 11 12 13 15 15 15 15 14 11 9 10 10 11 10 9 10 9 7 9 8 9 8 8 8 8 7 7 7 8 8 8 9 9 10 9 9 9 9 8 7 7 6 7 6 6 7 6 7 5 6 6 4
4 6 6 6 6 7 9 9 9 11 12 11 12 13 13 14 14 11 10 9 9 11 11 11 10 9 8 9 8 8 7 7 7 6 6 8 6 7 8 8 7 8 9 9 9 9 9 8 8 8 7 7 8 7 4 6 6 7 6 6 6 5
4 6 8 8 9 8 9 9 10 10 11 11 11 13 14 13 13 11 11 11 9 11 11 11 10 8 8 9 9 9 8 6 7 7 9 8 8 7 7 7 8 9 9 8 9 9 9 9 8 7 7 7 8 8 6 5 6 7 8 7 7 6
4 4 6 7 8 9 10 10 10 10 11 12 11 13 14 13 12 11 13 13 11 11 11 11 10 11 10 9 8 10 10 8 8 9 9 8 6 8 6 7 8 8 9 8 9 9 8 9 8 8 7 8 8 8 8 7 6 6 6 7 7 7
7 7 5 6 7 7 9 9 10 11 11 11 12 11 12 12 11 11 12 12 12 11 10 11 10 11 10 9 7 8 8 8 9 8 7 7 8 7 6 5 6 8 8 8 9 9 9 9 9 8 8 7 7 8 8 8 7 6 6 6 6 7
7 5 5 5 7 7 8 9 10 10 10 11 11 11 12 12 11 11 11 11 13 11 12 11 11 12 12 11 10 9 8 7 9 9 7 8 8 8 7 7 7 8 10 9 9 9 9 9 9 9 9 8 8 7 7 7 7 7 6 6 6 6
11 7 7 6 6 7 7 9 10 10 10 11 12 11 11 11 9 10 11 11 13 12 12 11 11 10 10 11 11 8 7 9 9 10 10 9 9 10 9 7 8 7 9 10 9 9 9 9 8 8 8 9 8 8 8 8 7 6 5 5 5 5
8 6 7 7 8 7 8 8 8 10 10 11 11 11 11 8 10 11 12 12 13 11 12 11 10 9 10 10 9 7 7 7 8 9 8 8 9 9 9 10 9 8 8 8 8 8 8 8 8 8 8 8 8 8 7 7 7 7 6 5 5 5
8 8 7 7 7 9 9 8 8 9 9 9 10 10 12 10 11 12 12 12 13 12 10 10 9 7 8 8 7 7 8 9 8 7 8 8 8 7 7 8 7 8 8 7 7 7 6 7 8 7 8 9 9 8 8 8 7 7 6 6 5 4
8 8 6 7 10 10 10 9 9 10 11 11 11 11 11 11 12 12 12 12 12 10 10 10 8 9 8 8 9 9 9 8 7 7 7 8 7 7 8 6 6 8 9 10 9 7 5 4 4 8 11 9 9 9 7 7 8 7 7 6 6 4
8 7 7 9 11 11 10 9 8 8 9 9 10 11 11 11 11 12 12 12 11 10 10 9 10 9 10 9 8 7 8 7 7 6 5 6 7 7 8 8 8 8 8 8 8 10 9 8 8 16 16 16 15 11 9 8 7 6 6 5 6 6
9 8 8 9 10 9 8 8 8 8 10 10 10 10 10 11 11 12 11 11 10 10 10 10 10 10 9 8 8 8 6 8 8 7 9 9 8 7 6 9 10 10 8 7 7 7 7 6 10 17 16 16 15 9 6 5 6 6 6 6 6 5
10 7 7 7 7 7 8 8 8 10 10 9 9 9 10 12 11 11 11 10 10 10 10 10 10 10 8 6 6 6 9 10 10 10 9 10 10 8 9 8 8 8 5 5 5 6 5 3 10 13 14 13 13 13 9 5 6 6 6 6 6 6
6 6 8 7 6 5 6 8 9 7 7 8 8 10 10 11 11 10 10 10 10 10 10 9 8 7 7 6 6 6 6 7 9 7 7 7 6 6 7 7 7 5 7 6 7 6 6 7 12 16 17 17 17 17 12 6 7 6 5 7 7 6
9 7 6 7 5 4 5 6 6 6 7 8 9 10 10 10 10 10 10 10 10 9 7 9 9 8 7 7 6 6 7 7 6 7 6 6 8 9 9 9 8 7 5 4 5 5 6 6 15 18 18 18 18 19 13 5 5 5 4 5 5 6
11 8 6 2 3 4 5 6 6 7 7 8 9 9 9 9 9 9 9 9 8 9 9 8 7 8 7 8 7 7 7 7 8 8 6 5 5 4 4 4 3 5 6 6 7 6 5 5 15 17 19 19 18 18 7 5 5 5 4 4 6 7
3 2 2 3 3 5 6 6 7 8 8 8 7 8 9 9 9 9 7 9 9 9 10 10 9 7 8 7 7 8 7 8 9 7 6 7 6 6 7 7 5 4 6 7 7 7 4 3 11 15 15 16 16 12 5 6 5 4 5 5 6 6
2 2 3 4 4 5 6 7 8 8 8 8 8 9 9 9 9 9 9 9 7 9 9 9 7 7 7 8 9 8 7 5 4 6 8 8 8 8 7 6 6 6 6 7 6 5 5 4 7 13 14 14 16 10 6 6 6 5 6 6 6 4
3 4 4 6 6 6 7 8 9 8 8 8 9 9 9 10 9 9 8 9 9 7 9 6 8 9 9 8 7 8 8 8 8 6 6 6 5 6 5 6 6 6 5 7 9 10 9 7 7 13 13 15 16 10 5 5 5 5 6 5 5 5
5 5 6 6 6 7 8 9 8 7 8 9 9 9 9 9 9 9 8 8 8 7 5 6 9 8 9 9 8 7 7 6 7 7 7 7 5 6 5 6 6 9 7 7 7 8 9 10 9 12 18 18 18 16 7 5 5 6 6 6 6 7
4 5 5 5 7 7 8 7 6 7 7 8 8 8 8 7 7 8 8 8 8 6 6 6 7 9 7 7 7 7 6 7 7 7 7 7 5 6 5 6 6 5 4 3 3 5 4 5 7 9 17 16 16 16 12 6 7 6 6 7 9 10
5 6 5 5 5 5 5 4 6 6 7 6 5 5 6 7 7 8 7 6 6 6 6 7 5 6 6 7 8 8 7 5 6 7 7 6 6 8 7 6 6 6 5 4 4 4 4 4 8 6 12 15 16 16 17 9 7 7 7 11 11 11
7 7 7 6 6 6 4 6 7 5 5 4 5 5 6 7 7 8 6 6 6 7 7 7 7 6 5 6 7 9 7 7 7 6 5 6 6 7 8 7 5 6 5 4 4 4 4 4 6 10 8 13 15 16 17 17 12 12 10 10 11 10
7 8 7 6 6 5 5 7 8 6 6 6 6 6 5 6 6 6 7 6 6 6 6 6 6 6 6 7 7 7 8 7 7 7 6 6 6 6 5 5 5 5 5 5 4 3 3 3 2 7 9 8 13 15 17 18 18 17 12 11 11 10
9 8 7 6 5 4 4 4 9 7 7 6 6 7 7 6 8 8 7 7 7 7 6 6 6 6 6 7 8 8 7 8 8 7 6 6 6 6 6 5 5 5 5 5 5 4 4 4 4 3 7 13 12 15 16 17 17 17 18 14 12 12
7 8 9 6 4 4 3 3 7 10 6 6 6 7 7 8 9 8 7 7 6 6 7 7 6 6 6 7 6 7 7 9 7 6 7 6 6 6 6 5 5 5 5 5 4 4 4 4 4 4 4 7 8 10 13 15 14 14 15 14 13 16
8 8 8 8 3 4 4 5 2 6 6 7 6 7 8 9 8 8 7 7 7 7 6 8 7 7 6 6 6 5 5 6 6 6 6 6 5 5 5 5 5 5 5 4 4 4 4 4 4 3 3 3 3 3 3 4 6 7 8 7 7 7
7 9 8 6 4 3 4 5 6 6 6 5 6 7 9 8 7 7 7 7 7 7 6 6 8 8 6 5 5 5 5 4 4 5 6 6 6 6 5 5 5 5 5 4 4 4 3 3 3 3 3 3 3 3 2 2 2 2 2 3 4 4
8 7 8 6 4 4 5 6 5 4 6 6 6 8 9 8 9 9 8 7 6 6 6 6 6 6 6 6 4 3 2 4 4 4 3 2 1 2 4 5 4 3 2 2 3 4 3 2 2 2 2 2 5 3 2 2 2 2 2 5 8 4
9 9 8 5 4 4 5 6 5 4 4 4 6 7 9 9 8 8 6 5 6 5 5 5 5 4 5 6 5 5 5 8 8 4 2 2 3 6 5 2 1 1 2 2 1 1 1 1 2 5 6 6 7 8 8 7 6 7 5 5 9 6
8 8 9 6 5 6 7 8 5 5 3 4 4 7 9 9 6 5 5 5 5 6 5 5 5 4 4 5 5 6 7 7 7 11 9 7 7 6 7 9 8 7 5 3 3 2 3 2 3 4 3 3 2 3 4 5 6 7 9 11 8 6
8 8 9 7 6 6 5 7 5 4 3 2 4 6 8 9 7 7 6 5 4 6 5 4 4 5 5 4 4 5 6 7 8 8 10 10 9 10 9 8 9 8 7 7 7 5 3 4 3 3 3 3 3 3 4 5 6 6 7 8 8 6
7 6 6 6 6 8 7 9 5 3 2 2 3 6 8 7 7 8 7 5 6 5 6 5 5 4 5 5 5 5 5 6 7 9 8 9 15 16 15 13 12 12 12 11 10 8 7 5 5 4 2 1 3 4 5 4 6 7 7 7 5 4
7 6 7 7 6 6 5 7 5 3 2 1 1 5 7 7 7 7 6 6 6 6 5 4 4 5 5 4 4 4 4 5 5 7 10 8 7 7 10 14 14 11 11 10 9 7 7 6 5 4 4 4 3 3 3 2 2 2 5 4 1 1
8 7 6 8 7 6 9 8 4 3 2 2 4 7 7 8 8 7 7 9 6 4 4 4 3 3 3 3 4 4 3 3 4 5 7 7 8 7 6 4 5 8 9 7 7 8 9 9 10 8 7 6 4 2 1 0 1 2 3 2 0 0
7 6 5 4 6 10 11 7 3 3 2 2 5 8 9 8 10 7 5 5 5 4 4 4 3 3 3 3 3 3 3 4 4 3 3 3 3 5 5 4 3 3 6 10 11 10 9 10 9 8 8 7 6 4 1 1 1 1 1 1 0 0
Wind_Direction
198 196 197 196 196 195 195 194 193 194 199 200 200 204 207 208 205 195 198 201 194 196 195 193 189 188 188 186 168 167 176 178 184 181 168 141 154 158 162 157 146 151 156 151 150 150 152 150 148 147 148 149 135 135 126 132 138 126 115 107 109 105
196 192 188 188 192 193 195 194 193 197 199 200 203 205 207 208 208 199 199 197 193 195 185 193 193 191 189 182 165 174 183 190 178 170 168 177 164 167 169 171 164 163 158 157 152 151 151 150 148 152 147 144 136 135 131 133 128 118 119 121 108 105
185 184 181 179 181 189 195 200 202 202 202 205 202 203 202 203 204 201 193 183 191 190 191 190 188 193 188 176 185 183 183 182 178 180 179 150 170 159 173 179 170 163 160 154 155 156 154 152 149 148 147 139 132 123 123 129 128 123 119 120 113 111
190 177 170 170 177 192 198 202 204 205 206 204 203 205 207 203 202 190 183 185 190 190 194 194 192 186 180 187 183 187 182 176 179 165 145 172 170 164 170 173 168 166 158 154 153 152 150 147 144 145 145 138 130 124 122 130 127 125 126 127 138 148
237 190 176 177 185 189 194 200 204 207 207 205 206 205 207 203 202 190 189 191 190 192 190 189 188 174 178 179 182 186 180 174 166 161 171 176 172 173 173 164 164 167 160 155 154 150 147 147 145 149 146 140 138 135 137 136 142 144 146 152 154 155
246 211 175 179 187 191 196 199 203 205 206 206 206 208 205 203 199 190 189 196 195 193 188 190 183 181 183 182 180 185 185 178 177 171 177 169 156 168 162 158 162 160 164 157 152 150 146 148 148 149 149 142 141 139 142 146 151 151 151 156 155 154
233 218 184 188 194 194 195 197 200 203 206 203 206 207 204 204 199 192 188 191 191 191 190 188 182 185 184 183 173 181 175 178 175 171 163 146 160 165 155 148 154 161 165 165 160 155 156 158 155 149 145 145 143 143 143 149 153 157 160 157 154 157
232 219 194 202 206 199 194 199 201 205 207 208 204 202 200 203 197 191 186 187 191 192 192 187 186 189 184 183 182 180 171 168 174 173 162 157 161 162 167 160 164 170 172 167 164 163 159 154 154 154 154 150 146 139 141 149 158 160 154 151 151 161
235 209 197 203 212 206 200 198 199 201 204 206 205 203 201 199 189 186 188 190 194 195 190 186 189 184 181 184 185 172 165 173 175 174 174 167 163 167 167 168 162 171 172 171 165 161 155 156 157 155 153 148 147 147 150 153 152 147 143 146 155 160
231 211 200 203 214 212 213 205 200 198 199 203 203 200 200 191 187 192 194 192 198 197 185 188 185 182 184 184 180 158 157 162 167 172 165 162 167 168 167 170 171 169 168 160 158 157 155 154 156 156 150 149 149 148 149 152 152 152 153 155 159 155
228 212 194 199 205 214 213 207 204 203 203 201 199 196 202 192 188 195 195 196 198 199 188 181 173 169 169 174 165 163 170 171 164 160 163 173 176 182 147 151 151 151 151 153 157 149 152 160 163 160 157 151 150 150 153 155 158 159 156 156 155 156
227 216 197 196 209 211 207 204 202 202 201 199 196 197 198 186 192 195 195 198 198 193 186 181 169 175 165 165 172 178 175 169 159 152 156 173 175 167 172 164 146 163 167 164 159 150 146 160 152 166 158 150 151 156 155 159 164 164 159 155 150 150
233 223 204 210 210 205 199 201 201 197 203 202 194 193 189 184 191 199 196 197 195 188 179 176 177 172 173 174 170 160 150 156 162 167 165 170 168 165 165 170 166 167 171 166 156 161 171 174 175 171 170 166 159 158 162 164 159 148 144 148 154 161
221 213 213 218 215 201 194 193 192 190 204 201 197 186 176 184 194 198 198 193 186 183 177 179 171 171 171 161 162 155 150 160 166 171 178 176 168 169 163 180 182 176 173 167 165 166 163 159 172 176 174 172 169 159 127 135 143 154 163 167 170 167
212 213 223 229 216 200 198 174 179 202 200 192 188 170 175 186 193 194 194 189 182 182 176 174 167 171 169 166 160 160 166 173 175 178 178 183 184 177 178 182 173 182 158 158 161 165 165 90 162 172 169 169 166 163 153 160 154 160 168 171 167 169
222 219 224 231 226 203 175 181 196 198 181 173 169 176 180 183 190 189 188 180 177 179 172 167 166 165 165 160 163 161 165 168 180 174 176 172 163 161 174 177 174 161 173 170 164 172 157 152 169 176 175 173 172 171 169 161 162 167 167 167 171 172
229 220 217 223 210 183 171 182 185 165 166 172 173 178 173 181 182 185 183 178 180 172 167 161 164 166 158 160 157 153 166 171 160 158 161 164 169 174 180 181 181 180 156 148 159 157 169 176 180 180 177 176 176 176 173 150 151 157 163 176 175 188
217 216 223 157 166 170 174 175 165 165 172 166 171 168 171 172 175 182 177 173 171 166 164 159 162 167 162 161 154 155 159 164 171 167 153 142 135 109 104 105 131 157 158 163 169 167 174 171 190 184 179 181 182 175 155 147 153 167 171 186 197 205
203 201 137 139 166 162 170 157 157 159 152 161 166 159 166 169 176 178 171 175 171 170 169 166 161 156 157 153 152 161 159 161 163 152 140 151 145 144 164 165 142 144 150 161 164 170 170 143 194 191 184 181 177 170 158 158 170 179 188 206 211 212
135 135 171 148 152 156 148 151 156 147 149 154 153 157 163 169 177 175 171 174 167 167 162 162 151 145 152 157 166 158 160 149 119 148 159 156 158 162 161 145 132 148 151 154 158 156 154 159 187 189 184 180 181 174 160 171 179 189 200 216 214 211
151 142 139 147 147 154 150 148 143 142 148 153 156 161 163 173 176 170 168 169 162 158 157 149 154 160 159 162 160 160 152 156 158 145 143 147 141 149 132 148 142 149 155 166 167 162 159 167 180 186 186 185 188 178 175 183 190 202 219 224 235 217
130 140 153 157 152 146 148 146 150 149 150 155 155 160 169 173 172 166 162 153 155 151 145 148 158 158 160 163 156 151 149 138 133 146 153 154 149 143 149 152 147 161 169 169 171 178 173 169 178 184 187 187 191 187 176 195 201 220 219 225 233 242
153 147 145 134 138 147 149 147 140 149 147 148 155 169 169 159 147 147 148 145 143 144 145 147 156 158 157 154 149 146 136 148 144 145 152 154 144 143 142 141 151 155 147 155 142 168 181 172 169 184 189 190 191 193 190 203 213 224 234 243 250 247
98 94 90 102 127 130 142 133 135 136 141 151 158 151 133 130 137 138 133 137 137 135 132 145 137 140 136 141 137 134 144 136 135 147 146 145 141 150 154 150 159 163 168 159 158 162 158 164 168 168 193 195 199 203 207 212 220 222 236 249 252 253
128 124 128 128 131 137 133 133 126 126 133 133 123 119 129 132 132 131 130 124 121 133 136 134 135 127 126 133 139 142 131 136 138 132 128 134 136 148 157 161 148 156 154 156 173 174 173 174 184 186 193 204 207 210 216 224 230 233 237 248 256 255
129 128 132 137 138 137 135 139 131 136 136 127 129 127 118 119 118 111 109 113 114 121 126 130 126 127 133 131 130 127 125 135 135 137 149 143 147 149 145 155 155 160 164 167 170 173 174 180 176 204 204 211 219 227 233 238 241 241 242 247 257 264
137 129 121 123 121 121 127 131 129 132 133 132 129 130 126 117 121 120 121 123 129 132 132 129 134 133 129 132 135 135 137 129 136 144 147 147 153 152 156 156 162 172 177 180 184 185 186 191 197 206 218 222 225 230 235 240 242 245 247 252 259 263
112 119 116 105 90 108 108 128 140 137 138 134 135 130 124 128 129 125 122 127 130 126 128 119 119 125 126 139 144 140 146 148 153 149 151 155 159 161 163 164 170 180 181 189 187 184 183 180 189 201 206 215 227 234 239 243 248 254 258 263 270 276
125 118 119 106 87 83 69 82 67 113 126 130 129 125 129 132 127 120 127 128 127 127 129 134 141 139 138 137 140 138 137 143 148 141 148 158 158 162 167 167 173 179 184 189 185 173 169 179 188 192 187 192 210 226 236 247 257 263 271 272 269 276
121 127 117 111 97 87 84 80 70 84 107 113 123 128 128 126 129 131 132 132 134 141 142 136 132 132 141 141 134 137 136 141 147 149 158 170 169 167 173 172 177 182 184 184 178 169 169 181 181 191 197 188 194 205 204 217 234 250 252 263 274 271
131 116 112 110 110 102 97 82 65 62 93 108 127 133 128 123 123 122 119 131 130 132 137 135 143 143 136 133 117 91 101 142 158 153 123 53 129 159 169 174 176 181 176 168 164 166 166 155 177 193 175 191 193 194 198 201 210 221 228 232 246 255
126 133 126 117 116 109 100 91 69 42 68 102 127 127 127 128 116 117 127 131 132 130 132 136 138 129 130 128 126 112 79 52 59 50 110 141 97 78 61 78 127 140 148 140 102 106 141 126 101 124 169 184 191 201 205 215 222 215 220 236 254 266
122 123 124 121 121 103 100 90 68 73 76 95 131 133 134 138 128 125 126 136 143 151 138 131 133 137 130 127 127 124 116 111 89 75 78 94 120 121 114 104 104 111 119 129 127 115 113 116 118 139 144 165 190 221 237 250 255 262 263 257 256 255
137 140 134 132 121 114 108 96 59 69 65 80 131 142 142 152 146 144 149 138 126 131 133 123 124 126 130 130 131 131 133 125 118 83 74 87 98 99 97 102 107 113 116 98 96 114 111 121 139 190 194 204 234 273 284 278 277 282 286 291 290 282
137 124 121 121 126 116 112 100 81 29 18 34 134 147 142 149 149 130 123 122 129 126 129 130 130 139 135 142 140 142 140 138 132 127 111 85 79 78 78 83 88 90 89 89 94 99 108 105 86 98 89 24 359 349 353 336 321 310 309 309 286 277
120 122 128 126 124 119 114 104 73 50 5 344 107 140 136 130 129 139 141 149 138 133 138 136 140 138 142 138 140 140 141 138 136 136 134 131 125 91 70 64 66 78 86 87 90 94 91 91 91 92 92 85 61 39 11 346 347 25 54 70 94 347
117 114 120 125 119 104 104 87 59 13 335 43 109 113 111 109 114 106 94 106 123 118 119 119 119 115 115 123 128 131 126 116 121 132 142 152 150 144 132 125 80 70 78 83 81 88 95 95 88 85 80 71 69 52 33 356 241 231 248 255 98 130
93 99 99 86 94 95 82 75 42 11 346 56 112 110 101 106 103 103 110 111 102 96 102 108 110 116 121 124 118 108 104 121 132 134 127 116 113 118 124 114 89 80 63 70 68 84 92 89 90 85 76 71 55 31 288 206 196 187 211 193 280 33